Regional Weather Roundup
Issued by NWS

Home | Current Version | Previous Version | Text Only | Print | Product List | Glossary On
Versions: 1 2 3 4 5 6 7 8 9 10 11 12 13 14 15 16 17 18 19 20 21 22 23 24 25 26 27 28 29 30 31 32 33 34 35 36 37 38 39 40 41 42 43 44 45 46 47 48 49 50
000
ASUS42 KKEY 292010
RWRKEY

FLORIDA REGIONAL WEATHER ROUNDUP FOR THE FLORIDA KEYS
NATIONAL WEATHER SERVICE KEY WEST FLORIDA
400 PM EDT WED JUL 29 2015

...SOUTH FLORIDA AND THE KEYS...

CITY           SKY/WX    TMP DP  RH WIND       PRES   REMARKS
FORT MYERS     CLOUDY    79  74  84 W9        29.99F
SW REGIONAL AP CLOUDY    80  73  79 SW8       30.00F
NAPLES         CLOUDY    84  76  76 VRB5      30.01F HX  93
MIAMI          CLOUDY    92  70  48 S7        29.99F HX  97
WEST KENDALL   PTSUNNY   93  71  48 W12       29.99F HX 100
HOMESTEAD      PTSUNNY   92  68  44 S8        29.99F HX  96
MARATHON       CLOUDY    91  77  63 NW6       30.02F HX 104
BOCA CHICA NAS PTSUNNY   90  73  57 NW8       30.02F HX  98
KEY WEST INTL  MOSUNNY   90  75  61 NW8       30.03F HX 100

...INTERNATIONAL WEATHER...

CITY           SKY/WX    TMP DP  RH WIND       PRES   REMARKS
NASSAU BAHAMAS PTSUNNY   88  75  66 S3        30.03F HX  97
CANCUN MEXICO  MOSUNNY   90  75  62 NE5       30.01F HX 100
COZUMEL MEXICO MOSUNNY   86  77  74 NE12      30.01F HX  97

ADJACENT COASTAL WATERS...

STATION/POSITION TIME  SKY/WX   TEMP    WIND        PRES    WAVE
                                AIR SEA DIR/SP/G            HT/PER
                 (UTC)          (F)     (DEG/KT/KT) (MB)    (FT/S)
PULASKI SHOAL LI 1900            85     320/  7/  8 1017.4F
SAND KEY         1950            86     320/  7/  9 1016.8F
SOMBRERO KEY     2000            86     310/  5/  5 1017.4F
LONG KEY         1900            86 90  320/  5/  6 1017.6F
MOLASSES REEF    2000            86 88  230/  7/  8 1016.5F
FOWEY ROCKS      NOT AVBL

$$


USA.gov is the U.S. government's official web portal to all federal, state and local government web resources and services.